Regional Weather Roundup
Issued by NWS

Home | Current Version | Previous Version | Graphics & Text | Print | Product List | Glossary Off
Versions: 1 2 3 4 5 6 7 8 9 10 11 12 13 14 15 16 17 18 19 20 21 22 23 24 25 26 27 28 29 30 31 32 33 34 35 36 37 38 39 40 41 42 43 44 45 46 47 48 49 50

000
ASUS43 KMKX 190700
RWRWI

WISCONSIN REGIONAL WEATHER ROUNDUP
NATIONAL WEATHER SERVICE MILWAUKEE/SULLIVAN WI
200 AM CDT SAT AUG 19 2017

NOTE: "FAIR" INDICATES FEW OR NO CLOUDS BELOW 12,000 FEET WITH NO
SIGNIFICANT WEATHER AND/OR OBSTRUCTIONS TO VISIBILITY.

WIZ001-002-006>008-014>016-023>028-190800-
NORTHWEST WISCONSIN

CITY           SKY/WX    TMP DP  RH WIND       PRES   REMARKS
SUPERIOR ARPT    N/A     58  57  97 SW6       29.86F
ASHLAND        PTCLDY    61  58  90 SW7       29.86S
HAYWARD        CLOUDY    60  59  96 S3        29.90S FOG
SIREN            N/A     59  58  97 W5        29.91S FOG
CUMBERLAND     CLEAR     55  55 100 CALM      29.92S
RICE LAKE      FOG       56  56  98 CALM      29.93S VSB 3/4
CHETEK         FOG       59  59 100 CALM      29.91F VSB 1/4
LADYSMITH      CLOUDY    63  62  97 SW3       29.92F FOG
EAU CLAIRE     NOT AVBL
MENOMONIE      CLEAR     59  59  99 CALM      29.92F FOG
NEW RICHMOND   CLEAR     59  59  99 CALM      29.93S FOG
OSCEOLA        PTCLDY    57  57 100 CALM      29.96R FOG
$$

WIZ003>005-009-010-017-018-190800-
NORTH CENTRAL WISCONSIN

CITY           SKY/WX    TMP DP  RH WIND       PRES   REMARKS
MANITOWISH WTR CLOUDY    58  58 100 CALM      29.89F FOG
ARBOR VITAE    CLOUDY    59  58  96 CALM      29.89F
WOODRUFF       CLOUDY    59  58  96 CALM      29.89F
RHINELANDER    MOCLDY    56  56 100 W6        29.91S FOG
EAGLE RIVER    CLOUDY    53  53 100 W5        29.89S FOG
LAND O LAKES   CLOUDY    52  52 100 CALM      29.90S FOG
PHILLIPS       CLEAR     59  59 100 SW3       29.90F
TOMAHAWK       FOG       55  54  97 CALM      29.91S VSB 1
MEDFORD        FOG       61  61  99 W7        29.92F VSB 1/2
MERRILL        MOCLDY    61  61 100 W7        29.91S FOG
$$

WIZ029-030-035-036-043>047-190800-
CENTRAL WISCONSIN

CITY           SKY/WX    TMP DP  RH WIND       PRES   REMARKS
WAUSAU         CLOUDY    63  62  97 NW9       29.89S FOG
MOSINEE          N/A     59  59 100 W5        29.92S FOG
MARSHFIELD     CLEAR     61  59  93 W7        29.91S FOG
STEVENS POINT  CLOUDY    59  59 100 CALM      29.91S FOG
WAUPACA        CLOUDY    65  64  96 CALM      29.90F
WAUTOMA        CLOUDY    63  62  97 W5        29.91
WISC RAPIDS    CLOUDY    63  63 100 W8        29.92S
CAMP DOUGLAS   FOG       57  57 100 W5        29.92R VSB 3/4
$$

WIZ011>013-019>022-031-037>040-048>050-190800-
NORTHEAST WISCONSIN

CITY           SKY/WX    TMP DP  RH WIND       PRES   REMARKS
ANTIGO         CLOUDY    55  55 100 CALM      29.91S FOG
SHAWANO        CLOUDY    64  60  87 CALM      29.88F
OCONTO         CLOUDY    57  56  96 CALM      29.87F
STURGEON BAY   CLOUDY    60  57  89 SW5       29.87F
GREEN BAY      CLOUDY    62  62 100 W3        29.88F
MANITOWOC      NOT AVBL
APPLETON       CLOUDY    61  61 100 W6        29.88F
CLINTONVILLE   CLOUDY    61  59  94 CALM      29.89F
OSHKOSH        CLOUDY    64  62  93 W3        29.89F
$$

WIZ032>034-041-042-053>061-190800-
SOUTHWEST WISCONSIN

CITY           SKY/WX    TMP DP  RH WIND       PRES   REMARKS
LA CROSSE      PTCLDY    63  61  93 CALM      29.92S
SPARTA         FOG       53  53 100 CALM      29.94S VSB 3/4
VIROQUA        PTCLDY    60  60 100 CALM      29.94F
BOSCOBEL       FOG       59  58  96 CALM      29.92F VSB 1/2
PRAIRIE DU CHI FOG       58  57  96 CALM      29.93F VSB 1/4
PLATTEVILLE    CLEAR     59  59 100 NW3       29.95S
$$

WIZ056-057-062-063-064-067-068-190800-
SOUTH CENTRAL WISCONSIN

CITY           SKY/WX    TMP DP  RH WIND       PRES   REMARKS
REEDSBURG      CLEAR     58  58 100 CALM      29.92F
BARABOO/DELLS  CLEAR     59  58  94 CALM      29.93S
LONE ROCK      FOG       59  59 100 NW3       29.92F VSB 1/4
MINERAL POINT  PTCLDY    59  59 100 NW5       29.95S FOG
MADISON        CLEAR     61  59  93 CALM      29.91F FOG
MIDDLETON      CLEAR     61  61 100 CALM      29.93F
WATERTOWN      PTCLDY    63  63 100 W3        29.91S
MONROE         CLEAR     63  59  88 NW6       29.94R
JANESVILLE     CLEAR     61  61 100 CALM      29.92S
$$

WIZ051-052-058>065-066-070>072-190800-
SOUTHEAST WISCONSIN

CITY           SKY/WX    TMP DP  RH WIND       PRES   REMARKS
MILWAUKEE      PTCLDY    68  62  81 NW10      29.90S
WAUKESHA       MOCLDY    61  59  94 W7        29.93S
MILWAUKEE/TIMM PTCLDY    63  57  82 NW5       29.91S
RACINE         CLEAR     63  60  90 W6        29.91S
KENOSHA        CLEAR     63  59  87 NW6       29.90F
FOND DU LAC    CLOUDY    65  61  87 W5        29.90F
SHEBOYGAN      CLOUDY    63  62  97 CALM      29.89F
WEST BEND      CLOUDY    63  61  94 NW3       29.90F
JUNEAU         CLOUDY    64  61  91 CALM      29.92F
$$

LSZ147-162-190800-
LAKE SUPERIOR

STATION/POSITION TIME  TEMP    WIND        PRES    WAVE
                       AIR SEA DIR/SP/G            HT/PER
                 (UTC) (F)     (DEG/KT/KT) (MB)    (FT/S)
W MID LAKE BUOY  0550   62 60  240/ 14/ 16 1009.0F   1/ 4
DEVILS ISLAND    0600   64     240/ 17/ 20 1009.9F
SAXON HARBOR     0640   66     200/  8/ 11 1010.2F
$$

LMZ867-665-643>646-190800-
LAKE MICHIGAN

STATION/POSITION TIME  TEMP    WIND        PRES    WAVE
                       AIR SEA DIR/SP/G            HT/PER
                 (UTC) (F)     (DEG/KT/KT) (MB)    (FT/S)
S GREEN BAY BUOY 0630   69 70  260/  8/ 10 1011.5S
N MID LAKE BUOY  0550   66 67  290/ 14/ 16 1010.9R   1/ 3
NORTHPORT PIER   0640   66     290/  5/  9 1011.2R
KEWAUNEE LAKESHO 0630   63     320/  2/  3 1011.0F
SHEBOYGAN LAKESH 0600   67     310/  6/  8 1011.9R
PORT WASHINGTON  0640   67     310/  5/  6 1013.2S
ATWATER BUOY     0509   69 71  270/  8/ 10 1012.4R
MILWAUKEE LAKESH 0650   67     290/  6/  7   N/A
S MID LAKE BUOY  0550   71 71  340/ 14/ 16 1011.2F   1/ 4
KENOSHA   LAKESH 0600   66     290/  7/ 10 1012.2
$$

TC  - TEMPERATURE IN CELSIUS
VSB - VISIBILITY IN STATUTE MILES
WCI - WIND CHILL INDEX
HX  - HEAT INDEX





USA.gov is the U.S. government's official web portal to all federal, state and local government web resources and services.